Greenville, ME

10:29 AM EDT on June 29, 2017 (GMT -0400)
Greenville

Weather History for KGNR - October, 2012

Change the Weather History Date:

Thursday, October 25, 2012

  Actual Average (KMLT) Record (KMLT)
Temperature  
Mean Temperature 41 °F -  
Max Temperature 53 °F 52 °F 77 °F (1963)
Min Temperature 30 °F 32 °F 20 °F (1949)
Degree Days  
Heating Degree Days 24    
Moisture  
Dew Point 27 °F    
Average Humidity 60    
Maximum Humidity 88    
Minimum Humidity 37    
Precipitation  
Precipitation 0.00 in - - ()
Sea Level Pressure  
Sea Level Pressure 30.28 in    
Wind  
Wind Speed 3 mph (ENE)    
Max Wind Speed 7 mph    
Max Gust Speed -    
Averages and records for this station are not official NWS values.
T = Trace of Precipitation, MM = Missing Value Source: NWS Daily Summary

Daily Weather History Graph

Daily Weather History Graph

Search for Another Location

Airport or City:

Trip Planner

Search our weather history database for the weather conditions in past years. The results will help you decide how hot, cold, wet, or windy it might be!

Date:

Astronomy

Oct. 25, 2012 Rise Set
Actual Time 7:08 AM EDT 5:35 PM EDT
Civil Twilight 6:38 AM EDT 6:05 PM EDT
Nautical Twilight 6:03 AM EDT 6:40 PM EDT
Astronomical Twilight 5:29 AM EDT 7:14 PM EDT
Moon 3:28 PM EDT (10/25) 2:51 AM EDT (10/25)
Length of Visible Light 11h 27m
Length of Day
10h 26m
Waxing Gibbous, 84% of the Moon is Illuminated
Oct 25
Waxing Gibbous
Oct 29
Full
Nov 6
Last Quarter
Nov 13
New
Nov 20
First Quarter

Hourly Weather History & Observations

Time (EDT) Temp. Windchill Dew Point Humidity Pressure Visibility Wind Dir Wind Speed Gust Speed Precip Events Conditions
12:56 AM 36.0 °F 31.1 °F 21.9 °F 57% 30.25 in - NNW 5.8 mph - N/A   Unknown
1:56 AM 34.0 °F 28.0 °F 24.1 °F 67% 30.26 in - NNW 6.9 mph - N/A   Unknown
2:56 AM 35.1 °F 30.1 °F 23.0 °F 61% 30.25 in - North 5.8 mph - N/A   Unknown
3:56 AM 32.0 °F - 24.1 °F 73% 30.25 in - Calm Calm - N/A   Unknown
4:56 AM 30.9 °F - 25.0 °F 79% 30.27 in - Calm Calm - N/A   Unknown
5:56 AM 30.0 °F 26.5 °F 26.1 °F 85% 30.28 in - NNE 3.5 mph - N/A   Unknown
6:56 AM 30.0 °F 26.5 °F 27.0 °F 88% 30.30 in - NNE 3.5 mph - N/A   Unknown
7:56 AM 32.0 °F - 28.0 °F 85% 30.32 in - Calm Calm - N/A   Unknown
8:56 AM 36.0 °F - 28.9 °F 76% 30.33 in - Calm Calm - N/A   Unknown
9:56 AM 37.9 °F - 28.0 °F 68% 30.34 in - Calm Calm - N/A   Unknown
10:56 AM 42.1 °F - 28.9 °F 60% 30.32 in - Calm Calm - N/A   Unknown
11:56 AM 46.9 °F - 28.0 °F 48% 30.30 in - WNW 3.5 mph - N/A   Unknown
12:56 PM 48.9 °F - 27.0 °F 43% 30.28 in - Variable 3.5 mph - N/A   Unknown
1:56 PM 52.0 °F - 26.1 °F 37% 30.27 in - Calm Calm - N/A   Unknown
2:56 PM 52.0 °F - 28.0 °F 40% 30.25 in - Variable 4.6 mph - N/A   Unknown
3:56 PM 52.0 °F - 28.0 °F 40% 30.25 in - Calm Calm - N/A   Unknown
4:56 PM 50.0 °F - 28.0 °F 43% 30.25 in - Calm Calm - N/A   Unknown
5:56 PM 46.0 °F - 28.9 °F 51% 30.27 in - Calm Calm - N/A   Unknown
6:56 PM 43.0 °F 41.3 °F 28.0 °F 56% 30.28 in - SE 3.5 mph - N/A   Unknown
7:56 PM 43.0 °F 41.3 °F 27.0 °F 53% 30.29 in - SE 3.5 mph - N/A   Unknown
8:56 PM 42.1 °F 40.2 °F 27.0 °F 55% 30.28 in - SE 3.5 mph - N/A   Unknown
9:56 PM 42.1 °F 38.4 °F 27.0 °F 55% 30.27 in - ESE 5.8 mph - N/A   Unknown
10:56 PM 42.1 °F 40.2 °F 27.0 °F 55% 30.26 in - SE 3.5 mph - N/A   Unknown
11:56 PM 41.0 °F - 28.0 °F 60% 30.25 in - Calm Calm - N/A   Unknown